Le nostre stazioni meteo in Italia

Pubblicità
Il mio iltempo24.it
Comiso, Italia (16475): Temperatura & dewpoint: 30.06.2020 01:00:00 - 06.07.2020 01:00:00 (CEST)Comiso, Italia (16475): velocità del vento: 30.06.2020 01:00:00 - 06.07.2020 01:00:00 (CEST)Comiso, Italia (16475): direzione del vento: 30.06.2020 01:00:00 - 06.07.2020 01:00:00 (CEST)Comiso, Italia (16475): visibility: 30.06.2020 01:00:00 - 06.07.2020 01:00:00 (CEST)
Data & Tempo tt [°C] td [°C] ff [km/h] ff [kn] dd vv [km]
06.07.2020 01:00:00 21,0 17,0 5 3 ENE 10
06.07.2020 00:00:00 22,0 18,0 4 2 - 10
05.07.2020 23:00:00 22,0 18,0 5 3 OSO 10
05.07.2020 22:00:00 24,0 17,0 8 4 O 10
05.07.2020 21:00:00 26,0 14,0 16 9 N 10
05.07.2020 20:00:00 28,0 13,0 18 10 N 10
05.07.2020 19:00:00 29,0 13,0 18 10 NE 10
05.07.2020 18:00:00 30,0 15,0 8 4 ESE 10
05.07.2020 17:00:00 30,0 11,0 22 12 N 10
05.07.2020 16:00:00 30,0 15,0 16 9 O 10
05.07.2020 15:00:00 29,0 15,0 18 10 O 10
05.07.2020 14:00:00 29,0 15,0 21 11 O 10
05.07.2020 13:00:00 29,0 13,0 18 10 NO 10
05.07.2020 12:00:00 30,0 14,0 16 9 O 10
05.07.2020 11:00:00 29,0 12,0 16 9 N 10
05.07.2020 10:00:00 27,0 14,0 11 6 N 10
05.07.2020 09:00:00 25,0 15,0 9 5 NNE 10
05.07.2020 08:00:00 24,0 15,0 8 4 N 10
05.07.2020 07:00:00 21,0 15,0 2 1 - 10
05.07.2020 06:00:00 19,0 15,0 5 3 N 10
05.07.2020 05:00:00 20,0 14,0 5 3 NE 10
05.07.2020 04:00:00 18,0 14,0 8 4 ENE 10
05.07.2020 03:00:00 19,0 13,0 9 5 NE 10
05.07.2020 02:00:00 20,0 14,0 5 3 E 10
05.07.2020 01:00:00 21,0 14,0 5 3 NO 10
05.07.2020 00:00:00 22,0 14,0 8 4 ONO 10
04.07.2020 23:00:00 24,0 14,0 15 8 NE 10
04.07.2020 22:00:00 25,0 15,0 15 8 N 10
04.07.2020 21:00:00 25,0 19,0 21 11 N 10
04.07.2020 20:00:00 25,0 19,0 5 3 SSE 10
04.07.2020 19:00:00 27,0 18,0 16 9 SSO 10
04.07.2020 18:00:00 28,0 20,0 15 8 SSO 10
04.07.2020 17:00:00 29,0 20,0 21 11 SO 10
04.07.2020 16:00:00 30,0 19,0 18 10 SO 10
04.07.2020 15:00:00 29,0 17,0 21 11 SO 10
04.07.2020 14:00:00 31,0 18,0 24 13 SO 10
04.07.2020 13:00:00 33,0 13,0 22 12 SSO 10
04.07.2020 12:00:00 32,0 16,0 22 12 SO 10
04.07.2020 11:00:00 30,0 17,0 21 11 SO 10
04.07.2020 10:00:00 31,0 13,0 5 3 - 10
04.07.2020 09:00:00 29,0 13,0 4 2 - 10
04.07.2020 08:00:00 26,0 13,0 2 1 - 10
04.07.2020 07:00:00 22,0 13,0 5 3 NNE 10
04.07.2020 06:00:00 21,0 12,0 9 5 NE 10
04.07.2020 05:00:00 21,0 12,0 9 5 NNE 10
04.07.2020 04:00:00 21,0 15,0 4 2 - 10
04.07.2020 03:00:00 21,0 16,0 2 1 - 10
04.07.2020 02:00:00 22,0 18,0 8 4 N 10
04.07.2020 01:00:00 23,0 18,0 4 2 ENE 10
04.07.2020 00:00:00 24,0 19,0 2 1 - 10
03.07.2020 23:00:00 24,0 20,0 4 2 - 10
03.07.2020 22:00:00 25,0 21,0 4 2 - 10
03.07.2020 21:00:00 25,0 21,0 9 5 O 10
03.07.2020 20:00:00 28,0 20,0 11 6 SSO 10
03.07.2020 19:00:00 30,0 19,0 13 7 SSO 10
03.07.2020 18:00:00 32,0 18,0 11 6 S 10
03.07.2020 17:00:00 33,0 16,0 13 7 OSO 10
03.07.2020 16:00:00 34,0 16,0 21 11 OSO 10
03.07.2020 15:00:00 34,0 13,0 16 9 SO 10
03.07.2020 14:00:00 34,0 13,0 13 7 OSO 10
03.07.2020 13:00:00 34,0 15,0 13 7 SO 10
03.07.2020 12:00:00 33,0 17,0 15 8 OSO 10
03.07.2020 11:00:00 32,0 18,0 13 7 SO 10
03.07.2020 10:00:00 31,0 14,0 8 4 SO 10
03.07.2020 09:00:00 30,0 14,0 8 4 SSO 10
03.07.2020 08:00:00 26,0 15,0 4 2 - 10
03.07.2020 07:00:00 21,0 17,0 4 2 ENE 10
03.07.2020 06:00:00 20,0 17,0 5 3 ESE 10
03.07.2020 05:00:00 19,0 15,0 5 3 OSO 10
03.07.2020 04:00:00 20,0 16,0 9 5 NE 10
03.07.2020 03:00:00 20,0 18,0 8 4 NE 10
03.07.2020 02:00:00 20,0 19,0 5 3 ENE 8
03.07.2020 01:00:00 21,0 21,0 4 2 NNE 8
03.07.2020 00:00:00 22,0 21,0 5 3 SO 10
02.07.2020 23:00:00 22,0 21,0 2 1 - 10
02.07.2020 22:00:00 22,0 21,0 8 4 SO -
02.07.2020 21:00:00 24,0 20,0 8 4 OSO -
02.07.2020 20:00:00 27,0 19,0 8 4 SO 10
02.07.2020 19:00:00 27,0 19,0 13 7 OSO 10
02.07.2020 18:00:00 29,0 18,0 15 8 OSO 10
02.07.2020 17:00:00 31,0 17,0 13 7 OSO 10
02.07.2020 16:00:00 33,0 16,0 13 7 OSO 10
02.07.2020 15:00:00 32,0 14,0 22 12 OSO 10
02.07.2020 14:00:00 34,0 12,0 16 9 OSO 10
02.07.2020 13:00:00 33,0 9,0 15 8 OSO 10
02.07.2020 12:00:00 33,0 12,0 11 6 SO 10
02.07.2020 11:00:00 31,0 15,0 13 7 O 10
02.07.2020 10:00:00 30,0 13,0 9 5 SO 10
02.07.2020 09:00:00 30,0 12,0 5 3 SSO 10
02.07.2020 08:00:00 26,0 14,0 2 1 - 10
02.07.2020 07:00:00 22,0 14,0 5 3 ESE 10
02.07.2020 06:00:00 19,0 13,0 2 1 S 10
02.07.2020 05:00:00 21,0 12,0 9 5 NE 10
02.07.2020 04:00:00 21,0 12,0 11 6 NE 10
02.07.2020 03:00:00 20,0 15,0 5 3 NE 10
02.07.2020 02:00:00 21,0 15,0 4 2 ENE 10
02.07.2020 01:00:00 22,0 16,0 4 2 - 10
02.07.2020 00:00:00 22,0 16,0 5 3 N 10
01.07.2020 23:00:00 24,0 16,0 5 3 E 10
01.07.2020 22:00:00 25,0 17,0 8 4 SO 10
01.07.2020 21:00:00 27,0 16,0 5 3 SSO 10
01.07.2020 20:00:00 30,0 15,0 9 5 SSO 10
01.07.2020 19:00:00 32,0 12,0 5 3 OSO 10
01.07.2020 18:00:00 32,0 12,0 13 7 SO 10
01.07.2020 17:00:00 32,0 11,0 18 10 OSO 10
01.07.2020 16:00:00 33,0 11,0 13 7 SO 10
01.07.2020 15:00:00 32,0 11,0 15 8 SO 10
01.07.2020 14:00:00 32,0 13,0 18 10 SO 10
01.07.2020 13:00:00 34,0 14,0 18 10 OSO 10
01.07.2020 12:00:00 34,0 14,0 16 9 OSO 10
01.07.2020 11:00:00 33,0 10,0 5 3 - 10
01.07.2020 10:00:00 32,0 10,0 8 4 ONO 10
01.07.2020 09:00:00 30,0 11,0 5 3 - 10
01.07.2020 08:00:00 26,0 12,0 4 2 - 10
01.07.2020 07:00:00 21,0 12,0 9 5 NE 10
01.07.2020 06:00:00 19,0 12,0 8 4 NE 10
01.07.2020 05:00:00 18,0 12,0 5 3 ENE 10
01.07.2020 04:00:00 19,0 12,0 4 2 NE 10
01.07.2020 03:00:00 21,0 14,0 5 3 NE 10
01.07.2020 02:00:00 - - - - - -
01.07.2020 01:00:00 22,0 11,0 5 3 NE 10
01.07.2020 00:00:00 22,0 12,0 4 2 NE 10
30.06.2020 23:00:00 21,0 14,0 5 3 NE 10
30.06.2020 22:00:00 24,0 14,0 8 4 NE 10
30.06.2020 21:00:00 25,0 15,0 2 1 - 10
30.06.2020 20:00:00 28,0 13,0 13 7 O 10
30.06.2020 19:00:00 30,0 15,0 11 6 O 10
30.06.2020 18:00:00 30,0 16,0 11 6 OSO 10
30.06.2020 17:00:00 32,0 15,0 16 9 SO 10
30.06.2020 16:00:00 32,0 13,0 11 6 SO 10
30.06.2020 15:00:00 32,0 16,0 21 11 SO 10
30.06.2020 14:00:00 32,0 14,0 18 10 SO 10
30.06.2020 13:00:00 33,0 15,0 21 11 SO 10
30.06.2020 12:00:00 34,0 10,0 9 5 SSO 10
30.06.2020 11:00:00 33,0 12,0 5 3 - 10
30.06.2020 10:00:00 30,0 14,0 5 3 - 10
30.06.2020 09:00:00 29,0 14,0 4 2 - 10
30.06.2020 08:00:00 27,0 15,0 2 1 - 10
30.06.2020 07:00:00 21,0 15,0 5 3 ENE 10
30.06.2020 06:00:00 18,0 14,0 9 5 NE 10
30.06.2020 05:00:00 20,0 14,0 5 3 NE 10
30.06.2020 04:00:00 20,0 14,0 9 5 NE 10
30.06.2020 03:00:00 20,0 14,0 9 5 NE 10
30.06.2020 02:00:00 21,0 16,0 5 3 SE 10
30.06.2020 01:00:00 22,0 15,0 5 3 NE 10

tt = Temperatura
td = dewpoint
ff = velocità del vento
dd = direzione del vento
vv = visibility

Stazioni seguenti

WeatherPro
AMSI
MeteoEarth